| time (UTC) | temp C | wind direction | speed KPH | gust KPH | rain 1hr cm | rain 24hr cm | rain mn cm | humidity % | barometer mb |
| 20260504232003 | 11 | 298 | 27.4 | 38.6 | 0.00 | 1.88 | 1.22 | 64 | 1002.3 |
| 20260504231514 | 11 | 236 | 27.4 | 38.6 | 0.00 | 1.91 | 1.22 | 65 | 1002.3 |
| 20260504231003 | 11 | 255 | 22.5 | 32.2 | 0.00 | 1.93 | 1.22 | 65 | 1002.3 |
| 20260504230505 | 11 | 255 | 19.3 | 37.0 | 0.00 | 1.96 | 1.22 | 65 | 1002.2 |
| 20260504230017 | 11 | 254 | 14.5 | 49.9 | 0.00 | 1.96 | 1.22 | 65 | 1002.1 |
| 20260504225505 | 11 | 234 | 19.3 | 49.9 | 0.00 | 1.96 | 1.22 | 64 | 1001.9 |
| 20260504225006 | 11 | 234 | 20.9 | 40.2 | 0.00 | 1.98 | 1.22 | 64 | 1001.8 |
| 20260504224520 | 11 | 265 | 17.7 | 30.6 | 0.00 | 2.01 | 1.22 | 64 | 1001.8 |
| 20260504224006 | 11 | 259 | 16.1 | 30.6 | 0.00 | 2.01 | 1.22 | 63 | 1001.7 |
| 20260504223508 | 11 | 267 | 16.1 | 37.0 | 0.00 | 2.03 | 1.22 | 62 | 1001.6 |
| 20260504223026 | 11 | 236 | 19.3 | 40.2 | 0.00 | 2.03 | 1.22 | 61 | 1001.6 |
| 20260504222510 | 11 | 240 | 27.4 | 45.1 | 0.00 | 2.06 | 1.22 | 61 | 1001.5 |
| 20260504222009 | 11 | 251 | 22.5 | 53.1 | 0.00 | 2.06 | 1.22 | 60 | 1001.4 |
| 20260504221525 | 12 | 233 | 24.1 | 53.1 | 0.00 | 2.08 | 1.22 | 59 | 1001.3 |
| 20260504221012 | 12 | 260 | 24.1 | 43.5 | 0.00 | 2.11 | 1.22 | 58 | 1001.2 |
| 20260504220504 | 12 | 227 | 25.7 | 48.3 | 0.00 | 2.13 | 1.22 | 57 | 1001.2 |
| 20260504220014 | 12 | 253 | 22.5 | 48.3 | 0.00 | 2.16 | 1.22 | 57 | 1001.0 |
| 20260504215506 | 12 | 290 | 24.1 | 57.9 | 0.00 | 2.16 | 1.22 | 55 | 1001.1 |
| 20260504215005 | 12 | 261 | 35.4 | 57.9 | 0.00 | 2.18 | 1.22 | 53 | 1001.3 |
| 20260504214516 | 12 | 274 | 27.4 | 46.7 | 0.00 | 2.21 | 1.22 | 52 | 1001.2 |
| 20260504214005 | 12 | 250 | 27.4 | 40.2 | 0.00 | 2.24 | 1.22 | 50 | 1001.2 |
| 20260504213506 | 13 | 255 | 29.0 | 40.2 | 0.00 | 2.24 | 1.22 | 49 | 1001.1 |
| 20260504213022 | 13 | 240 | 24.1 | 43.5 | 0.00 | 2.26 | 1.22 | 47 | 1001.1 |
| 20260504212508 | 13 | 278 | 30.6 | 56.3 | 0.00 | 2.29 | 1.22 | 45 | 1001.1 |
| 20260504212010 | 13 | 239 | 32.2 | 56.3 | 0.00 | 2.31 | 1.22 | 42 | 1001.0 |
| 20260504211524 | 13 | 309 | 29.0 | 51.5 | 0.00 | 2.34 | 1.22 | 41 | 1000.9 |
| 20260504211009 | 13 | 271 | 30.6 | 43.5 | 0.00 | 2.34 | 1.22 | 41 | 1000.9 |
| 20260504210509 | 13 | 263 | 25.7 | 46.7 | 0.00 | 2.34 | 1.22 | 41 | 1000.7 |
| 20260504210026 | 13 | 271 | 29.0 | 53.1 | 0.00 | 2.36 | 1.22 | 41 | 1000.7 |
| 20260504205509 | 13 | 317 | 24.1 | 59.5 | 0.00 | 2.39 | 1.22 | 39 | 1000.7 |
| 20260504205008 | 13 | 269 | 35.4 | 59.5 | 0.00 | 2.41 | 1.22 | 38 | 1000.8 |
| 20260504204514 | 13 | 195 | 29.0 | 61.2 | 0.00 | 2.44 | 1.22 | 38 | 1000.8 |
| 20260504204005 | 14 | 251 | 32.2 | 61.2 | 0.00 | 2.46 | 1.22 | 36 | 1000.5 |
| 20260504203506 | 14 | 251 | 33.8 | 49.9 | 0.00 | 2.51 | 1.22 | 36 | 1000.4 |
| 20260504203019 | 14 | 268 | 27.4 | 48.3 | 0.00 | 2.54 | 1.22 | 37 | 1000.4 |
| 20260504202508 | 15 | 280 | 30.6 | 48.3 | 0.00 | 2.59 | 1.22 | 36 | 1000.2 |
| 20260504202006 | 15 | 283 | 24.1 | 53.1 | 0.00 | 2.62 | 1.22 | 36 | 1000.3 |
| 20260504201522 | 15 | 270 | 29.0 | 53.1 | 0.00 | 2.64 | 1.22 | 35 | 1000.3 |
| 20260504201013 | 15 | 264 | 19.3 | 46.7 | 0.00 | 2.67 | 1.22 | 36 | 1000.2 |
| 20260504200510 | 15 | 289 | 33.8 | 46.7 | 0.00 | 2.69 | 1.22 | 34 | 1000.2 |
| 20260504200026 | 15 | 249 | 24.1 | 43.5 | 0.00 | 2.72 | 1.22 | 34 | 1000.0 |
| 20260504195510 | 15 | 228 | 25.7 | 54.7 | 0.00 | 2.74 | 1.22 | 34 | 1000.0 |
| 20260504195012 | 15 | 264 | 29.0 | 54.7 | 0.00 | 2.79 | 1.22 | 34 | 999.9 |
| 20260504194530 | 15 | 274 | 27.4 | 54.7 | 0.00 | 2.82 | 1.22 | 34 | 999.9 |
| 20260504194009 | 15 | 267 | 32.2 | 54.7 | 0.00 | 2.87 | 1.22 | 33 | 999.8 |
| 20260504193509 | 15 | 264 | 25.7 | 51.5 | 0.00 | 2.90 | 1.22 | 35 | 999.9 |
| 20260504193017 | 15 | 249 | 32.2 | 51.5 | 0.00 | 2.95 | 1.22 | 33 | 999.8 |
| 20260504192505 | 15 | 277 | 29.0 | 61.2 | 0.00 | 2.97 | 1.22 | 33 | 999.8 |
| 20260504192009 | 15 | 263 | 25.7 | 61.2 | 0.00 | 3.02 | 1.22 | 33 | 999.9 |
| 20260504191522 | 15 | 278 | 30.6 | 46.7 | 0.00 | 3.10 | 1.22 | 33 | 999.9 |
| 20260504191007 | 15 | 250 | 20.9 | 61.2 | 0.00 | 3.15 | 1.22 | 34 | 999.7 |
| 20260504190511 | 14 | 286 | 29.0 | 61.2 | 0.00 | 3.20 | 1.22 | 33 | 999.8 |
| 20260504190026 | 14 | 266 | 37.0 | 61.2 | 0.00 | 3.28 | 1.22 | 33 | 999.8 |
| 20260504185508 | 14 | 257 | 27.4 | 61.2 | 0.00 | 3.33 | 1.22 | 34 | 999.7 |
| 20260504185010 | 14 | 265 | 33.8 | 57.9 | 0.00 | 3.38 | 1.22 | 33 | 1000.0 |
| 20260504184525 | 14 | 266 | 27.4 | 57.9 | 0.00 | 3.45 | 1.22 | 35 | 999.8 |
| 20260504184011 | 14 | 247 | 25.7 | 53.1 | 0.00 | 3.51 | 1.22 | 35 | 999.6 |
| 20260504183514 | 14 | 253 | 25.7 | 53.1 | 0.00 | 3.56 | 1.22 | 35 | 999.8 |
| 20260504183027 | 13 | 264 | 32.2 | 48.3 | 0.00 | 3.63 | 1.22 | 34 | 999.7 |
| 20260504182513 | 14 | 300 | 20.9 | 51.5 | 0.00 | 3.68 | 1.22 | 37 | 999.8 |
| 20260504182011 | 13 | 233 | 25.7 | 51.5 | 0.00 | 3.76 | 1.22 | 36 | 999.9 |
| 20260504181526 | 13 | 248 | 27.4 | 46.7 | 0.00 | 3.78 | 1.22 | 38 | 999.8 |
| 20260504181007 | 13 | 303 | 32.2 | 46.7 | 0.00 | 3.81 | 1.22 | 35 | 999.8 |
| 20260504180510 | 13 | 235 | 24.1 | 46.7 | 0.00 | 3.84 | 1.22 | 37 | 999.8 |
| 20260504180021 | 13 | 255 | 30.6 | 59.5 | 0.00 | 3.86 | 1.22 | 35 | 999.7 |
| 20260504175509 | 13 | 241 | 32.2 | 59.5 | 0.00 | 3.89 | 1.22 | 36 | 999.7 |
| 20260504175012 | 13 | 252 | 27.4 | 59.5 | 0.00 | 3.94 | 1.22 | 35 | 999.9 |
| 20260504174524 | 13 | 273 | 27.4 | 59.5 | 0.00 | 3.96 | 1.22 | 38 | 1000.0 |
| 20260504174011 | 13 | 264 | 29.0 | 56.3 | 0.00 | 4.01 | 1.22 | 37 | 1000.0 |
| 20260504173510 | 13 | 293 | 32.2 | 56.3 | 0.00 | 4.04 | 1.22 | 37 | 999.5 |
| 20260504173027 | 13 | 274 | 25.7 | 48.3 | 0.00 | 4.06 | 1.22 | 39 | 999.7 |
| 20260504172510 | 12 | 236 | 25.7 | 51.5 | 0.00 | 4.11 | 1.22 | 39 | 999.8 |
| 20260504172011 | 12 | 231 | 29.0 | 53.1 | 0.00 | 4.11 | 1.22 | 41 | 999.8 |
| 20260504171542 | 12 | 285 | 32.2 | 53.1 | 0.00 | 4.14 | 1.22 | 41 | 999.9 |
| 20260504171012 | 12 | 255 | 33.8 | 45.1 | 0.00 | 4.17 | 1.22 | 43 | 1000.1 |
| 20260504170511 | 12 | 291 | 25.7 | 49.9 | 0.00 | 4.19 | 1.22 | 46 | 1000.1 |
| 20260504151010 | 10 | 252 | 33.8 | 51.5 | 0.00 | 4.22 | 1.22 | 62 | 999.4 |
| 20260504150504 | 10 | 246 | 32.2 | 51.5 | 0.00 | 4.22 | 1.22 | 62 | 999.4 |
| 20260504141011 | 8 | 277 | 32.2 | 53.1 | 0.00 | 4.24 | 1.22 | 69 | 999.0 |
| 20260504140510 | 9 | 283 | 24.1 | 54.7 | 0.00 | 4.24 | 1.22 | 70 | 998.9 |
| 20260504130511 | 6 | 281 | 27.4 | 57.9 | 0.00 | 4.32 | 1.22 | 78 | 998.5 |
| 20260504110507 | 5 | 297 | 22.5 | 35.4 | 0.00 | 4.32 | 1.22 | 86 | 997.0 |
| 20260504100510 | 4 | 279 | 29.0 | 53.1 | 0.00 | 4.32 | 1.22 | 89 | 995.9 |
| 20260504081524 | 3 | 38 | 30.6 | 62.8 | 0.08 | 4.22 | 1.14 | 94 | 993.5 |
| 20260504081009 | 3 | 319 | 37.0 | 62.8 | 0.08 | 4.22 | 1.14 | 94 | 993.4 |
| 20260504080508 | 3 | 328 | 35.4 | 51.5 | 0.08 | 4.22 | 1.12 | 94 | 993.3 |
| 20260504050503 | 2 | 297 | 35.4 | 72.4 | 0.48 | 3.94 | 0.84 | 95 | 990.9 |
| 20260504050014 | 1 | 287 | 37.0 | 74.0 | 0.53 | 3.91 | 0.84 | 95 | 990.8 |
| 20260504045503 | 1 | 280 | 46.7 | 75.6 | 0.56 | 3.89 | 0.81 | 95 | 990.8 |
| 20260504045003 | 1 | 286 | 53.1 | 75.6 | 0.56 | 3.84 | 0.76 | 95 | 990.6 |
| 20260504044519 | 1 | 305 | 45.1 | 72.4 | 0.56 | 3.81 | 0.74 | 95 | 990.6 |
| 20260504044003 | 1 | 304 | 45.1 | 77.2 | 0.56 | 3.76 | 0.69 | 95 | 990.7 |
| 20260504043503 | 1 | 311 | 53.1 | 77.2 | 0.53 | 3.71 | 0.64 | 95 | 990.4 |
| 20260504043006 | 1 | 313 | 46.7 | 70.8 | 0.48 | 3.66 | 0.56 | 95 | 990.5 |
| 20260504042504 | 1 | 310 | 43.5 | 67.6 | 0.46 | 3.61 | 0.53 | 95 | 990.7 |
| 20260504042003 | 1 | 285 | 43.5 | 66.0 | 0.41 | 3.56 | 0.46 | 95 | 990.6 |
| 20260504041514 | 1 | 300 | 43.5 | 67.6 | 0.41 | 3.53 | 0.46 | 94 | 990.7 |
| 20260504041004 | 1 | 259 | 40.2 | 67.6 | 0.36 | 3.48 | 0.38 | 95 | 990.7 |
| 20260504040506 | 1 | 319 | 46.7 | 72.4 | 0.33 | 3.43 | 0.36 | 94 | 990.7 |
| 20260504040018 | 1 | 289 | 53.1 | 74.0 | 0.28 | 3.38 | 0.28 | 94 | 990.7 |
| 20260504035503 | 1 | 295 | 45.1 | 74.0 | 0.23 | 3.30 | 0.23 | 94 | 990.6 |
| 20260504035004 | 1 | 6 | 38.6 | 62.8 | 0.20 | 3.28 | 0.18 | 94 | 990.6 |
| 20260504034515 | 2 | 274 | 37.0 | 64.4 | 0.18 | 3.23 | 0.15 | 94 | 990.6 |
| 20260504034010 | 2 | 312 | 30.6 | 64.4 | 0.18 | 3.20 | 0.13 | 94 | 990.5 |
| 20260504033506 | 2 | 327 | 33.8 | 49.9 | 0.13 | 3.17 | 0.08 | 94 | 990.4 |
| 20260504033016 | 2 | 338 | 25.7 | 49.9 | 0.13 | 3.15 | 0.08 | 94 | 990.4 |
| 20260504032507 | 2 | 295 | 25.7 | 48.3 | 0.13 | 3.15 | 0.08 | 94 | 990.4 |
| 20260504032004 | 2 | 332 | 29.0 | 56.3 | 0.13 | 3.12 | 0.05 | 94 | 990.4 |
| 20260504031508 | 2 | 324 | 27.4 | 56.3 | 0.10 | 3.10 | 0.03 | 94 | 990.3 |
| 20260504031004 | 2 | 319 | 25.7 | 53.1 | 0.13 | 3.10 | 0.03 | 94 | 990.3 |
| 20260504030507 | 2 | 346 | 27.4 | 53.1 | 0.10 | 3.10 | 0.00 | 94 | 990.2 |
| 20260504030015 | 2 | 343 | 30.6 | 53.1 | 0.08 | 3.07 | 0.00 | 94 | 990.1 |
| 20260504025507 | 2 | 321 | 27.4 | 48.3 | 0.10 | 3.07 | 3.07 | 94 | 990.2 |
| 20260504025004 | 2 | 356 | 32.2 | 53.1 | 0.08 | 3.05 | 3.05 | 94 | 990.3 |
| 20260504024516 | 2 | 291 | 30.6 | 53.1 | 0.08 | 3.02 | 3.02 | 94 | 990.2 |
| 20260504024004 | 2 | 338 | 35.4 | 53.1 | 0.08 | 3.02 | 3.02 | 94 | 990.2 |
| 20260504023504 | 2 | 346 | 37.0 | 49.9 | 0.08 | 3.02 | 3.02 | 94 | 990.2 |
| 20260504023019 | 2 | 323 | 33.8 | 53.1 | 0.08 | 3.00 | 3.00 | 94 | 990.3 |
| 20260504022507 | 2 | 1 | 30.6 | 53.1 | 0.08 | 3.00 | 3.00 | 94 | 990.4 |
| 20260504022006 | 2 | 351 | 29.0 | 48.3 | 0.08 | 3.00 | 3.00 | 95 | 990.5 |
| 20260504021516 | 2 | 14 | 27.4 | 48.3 | 0.08 | 3.00 | 3.00 | 95 | 990.5 |
| 20260504021007 | 2 | 15 | 27.4 | 45.1 | 0.08 | 2.97 | 2.97 | 95 | 990.6 |
| 20260504020504 | 2 | 12 | 29.0 | 53.1 | 0.10 | 2.97 | 2.97 | 95 | 990.6 |
| 20260504020016 | 2 | 23 | 29.0 | 53.1 | 0.10 | 2.97 | 2.97 | 94 | 990.7 |
| 20260504015504 | 2 | 4 | 33.8 | 53.1 | 0.13 | 2.95 | 2.95 | 94 | 990.8 |
| 20260504015004 | 2 | 349 | 30.6 | 56.3 | 0.15 | 2.95 | 2.95 | 95 | 990.8 |
| 20260504014511 | 1 | 16 | 29.0 | 56.3 | 0.13 | 2.92 | 2.92 | 94 | 991.0 |
| 20260504014006 | 1 | 326 | 22.5 | 53.1 | 0.15 | 2.92 | 2.92 | 94 | 991.0 |
| 20260504013504 | 1 | 25 | 33.8 | 54.7 | 0.15 | 2.92 | 2.92 | 94 | 991.0 |
| 20260504013019 | 1 | 335 | 38.6 | 54.7 | 0.15 | 2.90 | 2.90 | 94 | 991.2 |
| 20260504012504 | 1 | 339 | 35.4 | 51.5 | 0.18 | 2.90 | 2.90 | 94 | 991.1 |
| 20260504012007 | 1 | 349 | 32.2 | 51.5 | 0.18 | 2.90 | 2.90 | 94 | 991.3 |
| 20260504011523 | 1 | 345 | 30.6 | 49.9 | 0.18 | 2.90 | 2.90 | 94 | 991.3 |
| 20260504011007 | 1 | 20 | 29.0 | 56.3 | 0.18 | 2.87 | 2.87 | 94 | 991.3 |
| 20260504010508 | 1 | 333 | 30.6 | 56.3 | 0.18 | 2.84 | 2.84 | 94 | 991.4 |
| 20260504010020 | 1 | 311 | 30.6 | 53.1 | 0.20 | 2.84 | 2.84 | 94 | 991.4 |
| 20260504005504 | 1 | 31 | 30.6 | 48.3 | 0.18 | 2.82 | 2.82 | 94 | 991.5 |
| 20260504005011 | 2 | 26 | 32.2 | 51.5 | 0.20 | 2.79 | 2.79 | 94 | 991.5 |
| 20260504004523 | 2 | 4 | 30.6 | 62.8 | 0.23 | 2.79 | 2.79 | 94 | 991.6 |
| 20260504004008 | 2 | 22 | 30.6 | 62.8 | 0.23 | 2.77 | 2.77 | 94 | 991.6 |
| 20260504003508 | 2 | 43 | 32.2 | 59.5 | 0.25 | 2.77 | 2.77 | 94 | 991.8 |
| 20260504003012 | 2 | 337 | 35.4 | 59.5 | 0.25 | 2.74 | 2.74 | 94 | 991.8 |
| 20260504002505 | 2 | 347 | 29.0 | 51.5 | 0.28 | 2.72 | 2.72 | 94 | 991.8 |
| 20260504002009 | 2 | 13 | 32.2 | 54.7 | 0.28 | 2.72 | 2.72 | 94 | 992.0 |
| 20260504001516 | 2 | 14 | 35.4 | 54.7 | 0.28 | 2.69 | 2.69 | 93 | 992.0 |
| 20260504001007 | 2 | 352 | 33.8 | 57.9 | 0.28 | 2.67 | 2.67 | 94 | 992.1 |
| 20260504000507 | 2 | 25 | 32.2 | 57.9 | 0.28 | 2.64 | 2.64 | 94 | 992.2 |
| 20260504000019 | 2 | 356 | 29.0 | 57.9 | 0.28 | 2.62 | 2.62 | 94 | 992.2 |
| 20260503235508 | 2 | 4 | 32.2 | 61.2 | 0.28 | 2.62 | 2.62 | 94 | 992.2 |
| 20260503235008 | 2 | 357 | 35.4 | 61.2 | 0.25 | 2.57 | 2.57 | 94 | 992.1 |
| 20260503234524 | 2 | 31 | 30.6 | 54.7 | 0.25 | 2.54 | 2.54 | 94 | 992.2 |
| 20260503234009 | 2 | 334 | 37.0 | 54.7 | 0.23 | 2.54 | 2.54 | 94 | 992.2 |
| 20260503233508 | 2 | 10 | 30.6 | 49.9 | 0.23 | 2.51 | 2.51 | 94 | 992.2 |
| 20260503233024 | 2 | 20 | 32.2 | 51.5 | 0.20 | 2.49 | 2.49 | 93 | 992.3 |
| 20260503232510 | 2 | 4 | 30.6 | 53.1 | 0.18 | 2.44 | 2.44 | 93 | 992.3 |